Location: Observatory
(52.1446°N, 0.4624°W)
Time: 06:26:19
(UTC+00:00)

ISS - Pass Details

Date: 06 December 2017
Orbit: 403 x 407 km, 51.6° (Epoch: 12 December)

Event Time Altitude Azimuth Distance (km) Brightness Sun altitude
Rises 18:15:33 0° 270° (W) 2,331 1.5 -21.0°
Reaches altitude 10° 18:17:38 10° 270° (W) 1,470 0.1 -21.3°
Enters shadow 18:20:25 60° 261° (W) 469 -3.3 -21.7°
